Regional Weather Roundup
Issued by NWS

Home | Current Version | Previous Version | Graphics & Text | Print | Product List | Glossary On
Versions: 1 2 3 4 5 6 7 8 9 10 11 12 13 14 15 16 17 18 19 20 21 22 23 24 25 26 27 28 29 30 31 32 33 34 35 36 37 38 39 40 41 42 43 44 45 46 47 48 49 50
000
ASUS45 KABQ 300810
RWRNM
WEATHER ROUNDUP FOR NEW MEXICO
NATIONAL WEATHER SERVICE ALBUQUERQUE NM
200 AM MDT TUE SEP 30 2014

NOTE: "FAIR" MEANS FEW OR NO CLOUDS BELOW 12,000 FEET AGL WITH NO
       SIGNIFICANT WEATHER OR OBSTRUCTIONS TO VISION.

      THIS PRODUCT IS RELEASED AS TWO VERSIONS.  ONE VERSION NEAR
      THE TOP OF THE HOUR CONTAINING PRELIMINARY DATA FROM ALBUQUERQUE
      AND OTHER STATIONS.  A FINAL VERSION WITH ADDITIONAL DATA IS
      ISSUED ABOUT 10 MINUTES AFTER THE HOUR.

NMZ501-503-504-510>518-300900-
NORTHWEST PLATEAU/NORTHCENTRAL MOUNTAINS

CITY           SKY/WX    TMP DP  RH WIND       PRES   REMARKS
FARMINGTON     CLEAR     43  39  86 E3        30.06S
LOS ALAMOS     CLEAR     46  33  61 NE3       30.12S
SANTA FE       CLEAR     48  34  58 N10       30.07S
TAOS           CLEAR     37  32  81 E9        30.12F WCI  31
ANGEL FIRE     FAIR      39  32  76 SW5       30.13F

$$
NMZ402-403-502-505>509-300900-
WESTCENTRAL MOUNTAINS/SOUTHWEST MOUNTAINS

CITY           SKY/WX    TMP DP  RH WIND       PRES   REMARKS
GALLUP         CLEAR     40  37  89 CALM      30.11F
GRANTS         CLEAR     39  34  81 CALM      30.13S
SILVER CITY    CLEAR     54  46  76 NW6       30.06S

$$
NMZ407-409-411-412-300900-
SOUTHERN DESERTS

CITY           SKY/WX    TMP DP  RH WIND       PRES   REMARKS
LORDSBURG      FAIR      63  37  39 MISG      29.99S
DEMING         CLEAR     63  52  67 W7        29.98R
LAS CRUCES     CLEAR     66  54  64 W9        29.98S
HOLLOMAN AFB   CLEAR     66  57  72 SE6       29.92F
ALAMOGORDO     PTCLDY    63  55  77 S8        29.95S
T OR C         CLEAR     64  44  48 NW9       29.98S

$$
NMZ519>523-300900-
CENTRAL VALLEYS/CENTRAL HIGHLANDS

CITY           SKY/WX    TMP DP  RH WIND       PRES   REMARKS
ALBUQUERQUE    CLEAR     56  35  45 W7        30.05S
DOUBLE EAGLE   CLEAR     48  35  61 NW9       30.08R
MORIARTY ARPT  FAIR      46  32  58 W9        30.07S
CLINES CORNERS CLEAR     45  34  65 NW13      30.07R
BELEN          NOT AVBL
SOCORRO        FAIR      60  35  39 N12       30.01R

$$
NMZ524>526-539-540-300900-
SOUTHCENTRAL MOUNTAINS

CITY           SKY/WX    TMP DP  RH WIND       PRES   REMARKS
RUIDOSO        NOT AVBL

$$
NMZ527>531-300900-
NORTHEAST HIGHLANDS/NORTHEAST PLAINS

CITY           SKY/WX    TMP DP  RH WIND       PRES   REMARKS
LAS VEGAS      CLEAR     45  39  79 VRB5      30.06R
RATON          CLEAR     54  30  40 W13G26    30.00F
CLAYTON        CLEAR     58  54  86 SW9       29.95S

$$
NMZ532>537-300900-
EASTCENTRAL PLAINS

CITY           SKY/WX    TMP DP  RH WIND       PRES   REMARKS
TUCUMCARI      MOCLDY    63  57  81 S7        29.93R
CANNON AFB     NOT AVBL
CLOVIS AIRPORT   N/A     59  54  82 S7        29.98S

$$
NMZ028-029-538-300900-
SOUTHEAST PLAINS

CITY           SKY/WX    TMP DP  RH WIND       PRES   REMARKS
ROSWELL        PTCLDY    63  58  83 S7        29.91S
CARLSBAD       PTCLDY    65  59  81 SE10      29.89F
HOBBS          CLEAR     63  59  88 S6        29.96S


$$


USA.gov is the U.S. government's official web portal to all federal, state and local government web resources and services.